Regional Weather Roundup
Issued by NWS

Home | Current Version | Previous Version | Text Only | Print | Product List | Glossary Off
Versions: 1 2 3 4 5 6 7 8 9 10 11 12 13 14 15 16 17 18 19 20 21 22 23 24 25 26 27 28 29 30 31 32 33 34 35 36 37 38 39 40 41 42 43 44 45 46 47 48 49 50

000
ASUS43 KMPX 262110
RWRMN
WEATHER ROUNDUP FOR MINNESOTA
NATIONAL WEATHER SERVICE TWIN CITIES/CHANHASSEN MN
400 PM CDT MON JUN 26 2017


NOTE: "FAIR" INDICATES FEW OR NO CLOUDS BELOW 12,000 FEET WITH NO
SIGNIFICANT WEATHER AND/OR OBSTRUCTIONS TO VISIBILITY. N/A MEANS
CURRENT SKY AND/OR WEATHER CONDITIONS ARE NOT AVAILABLE.

MNZ060>063-068>070-262200-
   Twin Cities Metro

CITY           SKY/WX    TMP DP  RH WIND       PRES   REMARKS
TWIN CITIES    PTSUNNY   72  42  34 W12G20    30.12F
ST PAUL        PTSUNNY   70  43  37 MISG      30.12F
CRYSTAL        PTSUNNY   69  40  34 NW8       30.11F
BLAINE         PTSUNNY   72  43  35 NW10      30.12F
LAKEVILLE      PTSUNNY   70  45  40 NW12      30.13S
EDEN PRAIRIE   MOSUNNY   72  42  34 NW7       30.12F
SOUTH ST PAUL  MOSUNNY   70  41  35 N13       30.12S
LAKE ELMO      FAIR      68  45  42 NW9       30.12F
$$
MNZ001>005-007-008-013>017-022>024-027-028-262200-
   Northwest Minnesota

CITY           SKY/WX    TMP DP  RH WIND       PRES   REMARKS
BEMIDJI        MOSUNNY   69  40  34 NW15G21   30.13F
HALLOCK        MOSUNNY   72  39  30 NW12      30.11F
ROSEAU         MOSUNNY   72  46  40 NW12G20   30.09F
WARROAD        MOSUNNY   68  48  49 NW13G18   30.09S
THIEF RVR FALL MOSUNNY   70  38  31 NW12      30.13F
CROOKSTON      MOSUNNY   73  41  31 NW8       30.13F
FOSSTON        MOSUNNY   70  39  32 NW12G18   30.14F
DETROIT LAKES  MOSUNNY   68  37  32 NW8       30.17F
MOORHEAD       SUNNY     70  34  26 NW3       30.15F
PARK RAPIDS    PTSUNNY   69  37  30 NW13G22   30.14F
MAHNOMEN       MOCLDY    70  40  33 W14G20    30.14F
$$
MNZ006-009>011-018-025>026-262200-
   North Central Minnesota

CITY           SKY/WX    TMP DP  RH WIND       PRES   REMARKS
BAUDETTE       MOSUNNY   67  45  45 NW16      30.08F
FLAG ISLAND    MOSUNNY   68  45  42 N13       30.06F
INTL FALLS     PTSUNNY   69  42  37 NW17G26   30.06S
WASKISH        PTSUNNY   70  48  46 W12       30.09F
BIG FORK       MOSUNNY   66  43  42 W6        30.09F
LONGVILLE      MOSUNNY   66  45  45 W8        30.12F
GRAND RAPIDS   MOSUNNY   67  41  38 NW17G25   30.11F
CRANE LAKE     PTSUNNY   63  45  51 W9G18     30.09R
ORR            MOSUNNY   63  45  51 NW6       30.04F
COOK           MOSUNNY   66  45  45 W12       30.07F
WALKER         MOCLDY    67  43  41 NW8       30.12F
$$
MNZ012-019>021-037-262200-
   Northeast Minnesota

CITY           SKY/WX    TMP DP  RH WIND       PRES   REMARKS
DULUTH         RAIN      54  49  83 N14G28    30.11R
ELY            MOSUNNY   64  41  42 NW10G18   30.05F
HIBBING        MOSUNNY   66  44  45 NW15G22   30.07F
EVELETH        MOSUNNY   63  50  62 W7        30.09F
DULUTH HARBOR  CLOUDY    63  48  59 NW24G30   30.09R
TWO HARBORS    CLOUDY    68  52  56 W12G17    30.04F
SILVER BAY     MOSUNNY   66  46  48 NW5       30.03S
GRAND MARAIS     N/A     52  45  77 W10       29.99F
G MARAIS ARPRT MOSUNNY   63  41  45 NW8G18    30.02F
$$
MNZ029>031-032-039>041-046>048-054>057-064-262200-
   West Central Minnesota

CITY           SKY/WX    TMP DP  RH WIND       PRES   REMARKS
FERGUS FALLS   MOSUNNY   70  41  35 NW10      30.14F
WHEATON        SUNNY     70  39  32 NW8       30.19F
MORRIS         SUNNY     70  39  32 N7        30.16F
ALEXANDRIA     MOSUNNY   69  41  36 VRB6      30.18F
ELBOW LAKE     FAIR      66  42  41 N6        30.17F
WADENA         MOSUNNY   70  43  37 W8        30.15S
GLENWOOD       SUNNY     68  43  40 NW8       30.17F
APPLETON       SUNNY     72  37  28 NE9       30.17F
BENSON         MOSUNNY   72  39  30 NE7       30.18F
ORTONVILLE     SUNNY     70  37  30 CALM      30.18S
MADISON        SUNNY     72  43  35 CALM      30.18S
WILLMAR        FAIR      70  43  37 N7        30.17F
$$
MNZ033>034-036-042>043-049>051-058-059-262200-
   Central Minnesota

CITY           SKY/WX    TMP DP  RH WIND       PRES   REMARKS
ST CLOUD       MOSUNNY   72  41  32 NW8       30.13F
SAUK CENTRE    FAIR      69  41  37 W5        30.16F
PAYNESVILLE    MOSUNNY   71  38  29 N6        30.16F
AITKIN         SUNNY     68  45  42 N13       30.10F
PINE RIVER     PTSUNNY   66  46  48 N5        30.16F
BRAINERD       CLOUDY    67  42  40 NW10      30.13F
STAPLES        MOSUNNY   66  37  34 NW9       30.14F
LONG PRAIRIE   PTSUNNY   68  43  40 W8        30.16F
LITTLE FALLS   PTSUNNY   68  36  30 W10       30.14F
LITCHFIELD     MOSUNNY   70  46  43 VRB9      30.16F
BUFFALO        MOSUNNY   69  40  35 W6        30.14F
MAPLE LAKE     SUNNY     69  45  43 NW7       30.15F
HUTCHINSON     MOSUNNY   70  45  39 NW7       30.16F
$$
MNZ037-044-045-052-053-262200-
   East Central Minnesota

CITY           SKY/WX    TMP DP  RH WIND       PRES   REMARKS
PRINCETON      MOSUNNY   70  43  37 NW8       30.13F
MORA           SUNNY     64  43  45 N8G20     30.15R
CAMBRIDGE      MOSUNNY   70  48  46 N7        30.11F
RUSH CITY      SUNNY     68  46  45 NW9       30.12F
MOOSE LAKE     MOSUNNY   68  41  37 NW9G17    30.08S
HINCKLEY       FAIR      66  46  48 NW10      30.12F
CLOQUET        RAIN      63  43  48 N9G26     30.10R
MCGREGOR       PTSUNNY   68  43  40 W14G20    30.11F
$$
MNZ071>073-080-081-089-090-097-098-262200-
   Southwest Minnesota

CITY           SKY/WX    TMP DP  RH WIND       PRES   REMARKS
MONTEVIDEO     MOSUNNY   72  41  33 NE6       30.18S
GRANITE FALLS  MOSUNNY   71  42  35 NW9       30.19S
CANBY          SUNNY     72  38  29 CALM      30.19F
MARSHALL       SUNNY     67  39  35 VRB3      30.18F
REDWOOD FALLS  MOSUNNY   71  39  31 VRB6      30.16F
OLIVIA         MOSUNNY   70  41  35 N6        30.16F
PIPESTONE      SUNNY     70  37  30 NE9       30.18F
WINDOM         SUNNY     68  34  28 NE6G12    30.17F
WORTHINGTON    MOSUNNY   67  42  40 VRB6      30.18F
JACKSON        SUNNY     66  36  32 CALM      30.18S
TRACY          SUNNY     69  41  36 N9        30.18F
SLAYTON        SUNNY     66  38  35 N8        30.19F
$$
MNZ065>067-074>077-082>085-091>093-262200-
   South Central Minnesota

CITY           SKY/WX    TMP DP  RH WIND       PRES   REMARKS
MANKATO        MOSUNNY   69  41  36 N12G20    30.15F
NEW ULM        MOSUNNY   70  39  32 N7        30.15F
ST JAMES       MOSUNNY   70  39  32 E3G9      30.17S
FAIRMONT       MOSUNNY   68  41  37 N9        30.16
GLENCOE        MOSUNNY   70  46  41 N6        30.14F
FARIBAULT      SUNNY     70  41  35 NW7       30.14F
OWATONNA       SUNNY     70  43  37 NW12      30.14F
WASECA         MOSUNNY   68  41  37 NW10      30.16F
ALBERT LEA     MOSUNNY   68  39  34 N7        30.14F
$$
MNZ078>079-086>088-094>096-262200-
   Southeast Minnesota

CITY           SKY/WX    TMP DP  RH WIND       PRES   REMARKS
ROCHESTER      SUNNY     67  44  43 N10       30.14F
RED WING       SUNNY     70  37  30 N8        30.11S
STANTON        PTSUNNY   68  41  37 NE3       30.12F
DODGE CENTER   MOSUNNY   66  39  37 N3        30.14F
WINONA           N/A     70  45  40 N3        30.12S
AUSTIN         SUNNY     66  43  42 NW12      30.14F
PRESTON        SUNNY     65  44  47 N9        30.14F
$$
ABBREVIATIONS USED IN REMARKS
   TC - TEMPERATURES IN CELSIUS
  WCI - WIND CHILL INDEX
   HX - HEAT INDEX
  VSB - VISIBILITY
$$




USA.gov is the U.S. government's official web portal to all federal, state and local government web resources and services.